Regional Weather Roundup
Issued by NWS

Home | Current Version | Previous Version | Text Only | Print | Product List | Glossary Off
Versions: 1 2 3 4 5 6 7 8 9 10 11 12 13 14 15 16 17 18 19 20 21 22 23 24 25 26 27 28 29 30 31 32 33 34 35 36 37 38 39 40 41 42 43 44 45 46 47 48 49 50

000
ASUS43 KMPX 210101
RWRMN
WEATHER ROUNDUP FOR MINNESOTA
NATIONAL WEATHER SERVICE TWIN CITIES/CHANHASSEN MN
700 PM CST SAT JAN 20 2018


NOTE: "FAIR" INDICATES FEW OR NO CLOUDS BELOW 12,000 FEET WITH NO
SIGNIFICANT WEATHER AND/OR OBSTRUCTIONS TO VISIBILITY. N/A MEANS
CURRENT SKY AND/OR WEATHER CONDITIONS ARE NOT AVAILABLE.

MNZ060>063-068>070-210200-
   Twin Cities Metro

CITY           SKY/WX    TMP DP  RH WIND       PRES   REMARKS
TWIN CITIES    MOCLDY    38  32  79 W5        29.93R
ST PAUL        FAIR      35  32  88 CALM      29.94R
CRYSTAL        FAIR      36  29  75 CALM      29.91R
BLAINE         MOCLDY    37  34  87 SW3       29.92R
LAKEVILLE      FAIR      34  30  86 S3        29.92S
EDEN PRAIRIE   FAIR      38  32  79 CALM      29.91S
SOUTH ST PAUL  FAIR      34  31  89 CALM      29.92S
LAKE ELMO      FAIR      34  32  93 CALM      29.92S
$$
MNZ001>005-007-008-013>017-022>024-027-028-210200-
   Northwest Minnesota

CITY           SKY/WX    TMP DP  RH WIND       PRES   REMARKS
BEMIDJI        FAIR      26  23  90 W3        29.87R
HALLOCK        FAIR      19  19 100 S5        29.84S WCI  13
ROSEAU         FAIR      25  21  86 S9        29.83R WCI  15
WARROAD        FAIR      27  23  86 S7        29.83S WCI  19
CROOKSTON      FAIR      23  21  93 S7        29.89S WCI  15
FOSSTON        FAIR      19  19 100 S6        29.88F WCI  11
DETROIT LAKES  FAIR      30  28  93 CALM      29.90S
MOORHEAD       FAIR      34  28  80 SW3       29.91R
PARK RAPIDS    FAIR      26  21  81 CALM      29.87S
MAHNOMEN       FAIR      25  24  94 S6        29.88S WCI  18
$$
MNZ006-009>011-018-025>026-210200-
   North Central Minnesota

CITY           SKY/WX    TMP DP  RH WIND       PRES   REMARKS
BAUDETTE       FAIR      27  23  85 SW6       29.83R WCI  20
FLAG ISLAND    FAIR      23  19  86 S6        29.81S WCI  16
INTL FALLS     FAIR      19  17  92 SW5       29.84R WCI  12
WASKISH        FAIR      28  25  86 SW8       29.87R WCI  20
BIG FORK       FAIR      27  25  93 CALM      29.86S
LONGVILLE      FAIR      25  23  93 CALM      29.88S
GRAND RAPIDS   FAIR      29  27  92 SW3       29.89R
CRANE LAKE     FAIR      21  21 100 CALM      29.87R
ORR            FAIR      28  25  86 CALM      29.84R
COOK           FAIR      27  25  93 CALM      29.86R
WALKER         FAIR      29  24  80 SW5       29.87R WCI  24
$$
MNZ012-019>021-037-210200-
   Northeast Minnesota

CITY           SKY/WX    TMP DP  RH WIND       PRES   REMARKS
DULUTH         FAIR      34  27  75 W6        29.85S WCI  29
HIBBING        FAIR      20  19  96 CALM      29.86R
EVELETH        FOG       23  20  90 CALM      29.87R VSB 3/4
DULUTH HARBOR  FAIR      37  30  75 CALM      29.89R
TWO HARBORS    FAIR      36  28  75 W5        29.84S
SILVER BAY     FAIR      28  28 100 CALM      29.84S
GRAND MARAIS     N/A     32  31  96 NE7       29.88R WCI  26
G MARAIS ARPRT FAIR      27  21  80 CALM      29.84S
$$
MNZ029>031-032-039>041-046>048-054>057-064-210200-
   West Central Minnesota

CITY           SKY/WX    TMP DP  RH WIND       PRES   REMARKS
FERGUS FALLS   FAIR      34  30  86 CALM      29.90R
WHEATON        CLOUDY    37  28  70 CALM      29.93S
MORRIS         PTCLDY    36  28  75 CALM      29.91R
ALEXANDRIA     FAIR      31  28  89 SW6       29.91R WCI  25
ELBOW LAKE     FAIR      30  28  91 CALM      29.91S
WADENA         FAIR      30  27  86 W6        29.89S WCI  24
GLENWOOD       FAIR      36  30  80 W5        29.91S
APPLETON       CLOUDY    37  30  75 CALM      29.92R
BENSON         CLOUDY    37  30  75 CALM      29.92S
ORTONVILLE     CLOUDY    39  28  65 CALM      29.91S
MADISON        CLOUDY    39  30  70 SW3       29.93R
WILLMAR        FAIR      34  30  86 CALM      29.93S
$$
MNZ033>034-036-042>043-049>051-058-059-210200-
   Central Minnesota

CITY           SKY/WX    TMP DP  RH WIND       PRES   REMARKS
ST CLOUD       FAIR      34  30  85 CALM      29.90S
SAUK CENTRE      N/A     34  30  85 CALM      29.90F
PAYNESVILLE    FAIR      34  32  92 CALM      29.91S
AITKIN         FAIR      34  25  69 W3        29.87R
PINE RIVER     FAIR      28  25  86 CALM      29.92S
BRAINERD       FAIR      35  26  69 W6        29.89S WCI  30
STAPLES        FAIR      28  25  86 W3        29.89S
LONG PRAIRIE   FAIR      32  28  86 CALM      29.90S
LITTLE FALLS   FAIR      32  27  80 CALM      29.91R
LITCHFIELD     FAIR      36  32  87 CALM      29.92R
BUFFALO        MOCLDY    37  29  75 CALM      29.93R
MAPLE LAKE     MOCLDY    37  32  84 MISG      29.92R
HUTCHINSON     FAIR      33  31  92 CALM      29.94S
$$
MNZ037-044-045-052-053-210200-
   East Central Minnesota

CITY           SKY/WX    TMP DP  RH WIND       PRES   REMARKS
PRINCETON      FAIR      34  28  80 CALM      29.92R
MORA           FAIR      32  28  86 CALM      29.91F
CAMBRIDGE        N/A     36  27  69 CALM      29.91R
RUSH CITY      FAIR      32  29  90 W3        29.91R
MOOSE LAKE     FAIR      32  27  80 CALM      29.86S
HINCKLEY       FAIR      32  28  86 CALM      29.89S
CLOQUET        FAIR      36  27  69 W6        29.87R
MCGREGOR       FAIR      34  28  80 CALM      29.88S
$$
MNZ071>073-080-081-089-090-097-098-210200-
   Southwest Minnesota

CITY           SKY/WX    TMP DP  RH WIND       PRES   REMARKS
MONTEVIDEO     CLOUDY    37  28  70 SW5       29.93R
GRANITE FALLS  CLOUDY    38  32  77 CALM      29.94R
CANBY          CLOUDY    37  28  69 CALM      29.93R
MARSHALL       CLOUDY    38  29  70 CALM      29.93R
REDWOOD FALLS  CLOUDY    39  30  70 N5        29.92R
OLIVIA         CLOUDY    34  30  86 CALM      29.92S
PIPESTONE      CLOUDY    36  30  80 NE5       29.89S
WINDOM         CLOUDY    34  19  55 CALM      29.90F
WORTHINGTON    CLOUDY    34  31  88 NE7       29.90F WCI  28
JACKSON        CLOUDY    32  30  93 NE6       29.91S WCI  26
TRACY          PTCLDY    36  30  80 N3        29.91R
SLAYTON        PTCLDY    36  30  79 N5        29.91R
$$
MNZ065>067-074>077-082>085-091>093-210200-
   South Central Minnesota

CITY           SKY/WX    TMP DP  RH WIND       PRES   REMARKS
MANKATO        FAIR      38  32  79 CALM      29.92S
NEW ULM        CLOUDY    37  30  75 N3        29.92S
ST JAMES       CLOUDY    34  30  86 CALM      29.92F
FAIRMONT       CLOUDY    36  33  89 NE6       29.91F
FARIBAULT      FAIR      30  28  93 CALM      29.93R
OWATONNA       FAIR      34  30  86 CALM      29.92R
WASECA         FAIR      32  30  93 CALM      29.93R
ALBERT LEA     FAIR      34  32  93 CALM      29.91S
$$
MNZ078>079-086>088-094>096-210200-
   Southeast Minnesota

CITY           SKY/WX    TMP DP  RH WIND       PRES   REMARKS
ROCHESTER      FAIR      35  31  85 N3        29.91S
RED WING       FAIR      32  27  80 CALM      29.92S
STANTON        FAIR      33  30  90 CALM      29.92S
DODGE CENTER   FAIR      34  30  86 CALM      29.91S FOG
WINONA         FAIR      32  30  93 CALM      29.91F
PRESTON        FAIR      35  31  86 CALM      29.92R
$$
ABBREVIATIONS USED IN REMARKS
   TC - TEMPERATURES IN CELSIUS
  WCI - WIND CHILL INDEX
   HX - HEAT INDEX
  VSB - VISIBILITY
$$




USA.gov is the U.S. government's official web portal to all federal, state and local government web resources and services.